Starlink 1595

operational
NORAD ID: 46159 Int'l Des: 2020-057 Owner: SPXS Country: US Constellation: starlink
LEOCIRCULAR

关于 Starlink 1595

正在加载描述...

实时位置

正在加载3D地球...

即将过境

高度历史

Altitude vs Time

uPlot chart will show altitude changes over time

两行轨道根数

1 46159U 20057AU 26063.13132230 .00133385 00000-0 23990-2 0 9999
2 46159 53.0508 323.3206 0007703 100.2203 259.9673 15.48881549306746
Epoch: Mar 4, 2026 • Age: 19 hours

当前状态

高度 421.5 km
速度 7.66 km/s
星下点 -8.00°S, 51.74°E
发射日期 Aug 18, 2020
运行时间 5.5 years
类型 internet

技术详情

分类 Payload
质量 260.00 kg
干质量 248.00 kg
总质量 260.00 kg
长度 0.20 m
直径 2.80 m
跨度 9.00 m
形状 Box + pan
制造商 SPXS
平台类型 Starlink
阶段状态 In Orbit
所有者/国家 SPXS/US

大型星座

Loading constellations...